TimeEST,TemperatureF,Dew PointF,Humidity,Sea Level PressureIn,VisibilityMPH,Wind Direction,Wind SpeedMPH,Gust SpeedMPH,PrecipitationIn,Events,Conditions,WindDirDegrees,DateUTC
12:15 AM,33.8,28.4,81,29.61,10.0,WNW,10.4,20.7,N/A,,Drizzle,300,2012-12-28 05:15:00
12:35 AM,33.8,28.4,81,29.62,10.0,NW,10.4,20.7,N/A,,Light Drizzle,310,2012-12-28 05:35:00
12:55 AM,33.8,30.2,87,29.62,10.0,WNW,8.1,17.3,N/A,,Light Drizzle,300,2012-12-28 05:55:00
1:15 AM,33.8,30.2,87,29.63,10.0,WNW,8.1,19.6,N/A,,Light Drizzle,290,2012-12-28 06:15:00
1:35 AM,33.8,30.2,87,29.65,10.0,West,8.1,16.1,N/A,,Light Drizzle,280,2012-12-28 06:35:00
1:55 AM,33.8,30.2,87,29.66,10.0,West,9.2,-,N/A,,Light Drizzle,280,2012-12-28 06:55:00
2:15 AM,33.8,28.4,81,29.68,10.0,West,8.1,18.4,N/A,,Light Drizzle,280,2012-12-28 07:15:00
2:35 AM,33.8,28.4,81,29.69,10.0,West,11.5,20.7,N/A,,Light Drizzle,280,2012-12-28 07:35:00
2:55 AM,32.0,26.6,80,29.70,10.0,WNW,11.5,17.3,N/A,,Overcast,290,2012-12-28 07:55:00
3:15 AM,32.0,26.6,80,29.71,10.0,West,11.5,20.7,N/A,,Overcast,280,2012-12-28 08:15:00
3:35 AM,32.0,26.6,80,29.72,10.0,WNW,12.7,19.6,N/A,,Overcast,290,2012-12-28 08:35:00
3:55 AM,32.0,26.6,80,29.73,10.0,WNW,9.2,16.1,N/A,,Overcast,290,2012-12-28 08:55:00
4:15 AM,32.0,24.8,75,29.74,10.0,West,10.4,17.3,N/A,,Mostly Cloudy,280,2012-12-28 09:15:00
4:35 AM,32.0,24.8,75,29.75,10.0,West,8.1,21.9,N/A,,Partly Cloudy,280,2012-12-28 09:35:00
4:55 AM,32.0,23.0,69,29.76,10.0,West,12.7,21.9,N/A,,Mostly Cloudy,280,2012-12-28 09:55:00
5:15 AM,32.0,23.0,69,29.78,10.0,WNW,10.4,20.7,N/A,,Overcast,290,2012-12-28 10:15:00
5:35 AM,32.0,23.0,69,29.79,10.0,West,15.0,27.6,N/A,,Scattered Clouds,280,2012-12-28 10:35:00
5:55 AM,32.0,23.0,69,29.79,10.0,WNW,12.7,20.7,N/A,,Clear,290,2012-12-28 10:55:00
6:15 AM,32.0,23.0,69,29.80,10.0,WNW,12.7,19.6,N/A,,Clear,300,2012-12-28 11:15:00
6:35 AM,30.2,21.2,69,29.80,10.0,WNW,12.7,23.0,N/A,,Clear,290,2012-12-28 11:35:00
6:55 AM,32.0,21.2,64,29.81,10.0,WNW,12.7,23.0,N/A,,Clear,290,2012-12-28 11:55:00
7:15 AM,32.0,21.2,64,29.82,10.0,West,10.4,19.6,N/A,,Clear,280,2012-12-28 12:15:00
7:35 AM,30.2,21.2,69,29.84,10.0,West,9.2,16.1,N/A,,Clear,270,2012-12-28 12:35:00
7:55 AM,32.0,21.2,64,29.85,10.0,West,6.9,-,N/A,,Clear,270,2012-12-28 12:55:00
8:35 AM,32.0,21.2,64,29.88,10.0,West,10.4,17.3,N/A,,Clear,280,2012-12-28 13:35:00
8:55 AM,32.0,21.2,64,29.89,10.0,West,10.4,21.9,N/A,,Clear,280,2012-12-28 13:55:00
9:15 AM,32.0,21.2,64,29.90,10.0,West,12.7,18.4,N/A,,Clear,270,2012-12-28 14:15:00
9:35 AM,32.0,21.2,64,29.90,10.0,West,11.5,20.7,N/A,,Clear,280,2012-12-28 14:35:00
9:55 AM,33.8,21.2,60,29.91,10.0,West,12.7,19.6,N/A,,Clear,280,2012-12-28 14:55:00
10:15 AM,33.8,21.2,60,29.90,10.0,West,15.0,21.9,N/A,,Clear,280,2012-12-28 15:15:00
10:35 AM,33.8,21.2,60,29.90,10.0,WNW,12.7,23.0,N/A,,Clear,300,2012-12-28 15:35:00
10:55 AM,35.6,21.2,56,29.90,10.0,WNW,12.7,23.0,N/A,,Clear,290,2012-12-28 15:55:00
11:15 AM,35.6,23.0,60,29.90,10.0,WNW,11.5,19.6,N/A,,Clear,300,2012-12-28 16:15:00
11:35 AM,37.4,23.0,56,29.89,10.0,West,10.4,18.4,N/A,,Clear,280,2012-12-28 16:35:00
11:55 AM,37.4,23.0,56,29.89,10.0,West,10.4,-,N/A,,Clear,260,2012-12-28 16:55:00
12:15 PM,37.4,23.0,56,29.89,10.0,West,6.9,18.4,N/A,,Clear,270,2012-12-28 17:15:00
12:35 PM,37.4,23.0,56,29.89,10.0,West,10.4,17.3,N/A,,Clear,270,2012-12-28 17:35:00
12:55 PM,37.4,23.0,56,29.89,10.0,West,12.7,20.7,N/A,,Clear,280,2012-12-28 17:55:00
1:15 PM,37.4,23.0,56,29.89,10.0,West,12.7,21.9,N/A,,Clear,260,2012-12-28 18:15:00
1:55 PM,37.4,23.0,56,29.90,10.0,West,10.4,17.3,N/A,,Clear,270,2012-12-28 18:55:00
2:15 PM,37.4,23.0,56,29.91,10.0,West,11.5,-,N/A,,Clear,280,2012-12-28 19:15:00
2:35 PM,37.4,23.0,56,29.91,10.0,WNW,11.5,17.3,N/A,,Clear,290,2012-12-28 19:35:00
2:55 PM,37.4,24.8,60,29.92,10.0,WNW,10.4,16.1,N/A,,Clear,290,2012-12-28 19:55:00
3:15 PM,37.4,24.8,60,29.93,10.0,West,6.9,-,N/A,,Clear,280,2012-12-28 20:15:00
3:35 PM,37.4,23.0,56,29.93,10.0,WNW,9.2,-,N/A,,Clear,290,2012-12-28 20:35:00
3:55 PM,35.6,24.8,65,29.94,10.0,West,3.5,-,N/A,,Clear,260,2012-12-28 20:55:00
4:15 PM,35.6,24.8,65,29.95,10.0,West,6.9,-,N/A,,Clear,260,2012-12-28 21:15:00
4:35 PM,35.6,24.8,65,29.96,10.0,West,5.8,-,N/A,,Clear,260,2012-12-28 21:35:00
4:55 PM,33.8,24.8,70,29.97,10.0,West,6.9,-,N/A,,Clear,270,2012-12-28 21:55:00
5:15 PM,33.8,24.8,70,29.97,10.0,West,5.8,-,N/A,,Clear,260,2012-12-28 22:15:00
5:35 PM,33.8,24.8,70,29.98,10.0,West,3.5,-,N/A,,Clear,270,2012-12-28 22:35:00
5:55 PM,32.0,24.8,75,29.99,10.0,West,5.8,-,N/A,,Clear,260,2012-12-28 22:55:00
6:15 PM,33.8,24.8,70,29.99,10.0,West,5.8,-,N/A,,Clear,260,2012-12-28 23:15:00
6:35 PM,33.8,24.8,70,30.00,10.0,West,6.9,-,N/A,,Clear,270,2012-12-28 23:35:00
6:55 PM,32.0,24.8,75,30.00,10.0,West,5.8,-,N/A,,Clear,260,2012-12-28 23:55:00
7:15 PM,32.0,24.8,75,30.01,10.0,West,6.9,-,N/A,,Clear,270,2012-12-29 00:15:00
7:55 PM,32.0,24.8,75,30.01,10.0,West,5.8,-,N/A,,Clear,270,2012-12-29 00:55:00
8:15 PM,32.0,24.8,75,30.01,10.0,West,3.5,-,N/A,,Clear,280,2012-12-29 01:15:00
8:35 PM,32.0,26.6,80,30.01,10.0,West,4.6,-,N/A,,Clear,260,2012-12-29 01:35:00
8:55 PM,32.0,26.6,80,30.01,10.0,West,3.5,-,N/A,,Clear,270,2012-12-29 01:55:00
9:15 PM,32.0,24.8,75,30.01,10.0,West,4.6,-,N/A,,Clear,260,2012-12-29 02:15:00
9:55 PM,32.0,26.6,80,30.01,10.0,WSW,3.5,-,N/A,,Clear,250,2012-12-29 02:55:00
10:15 PM,32.0,26.6,80,30.01,10.0,Calm,Calm,-,N/A,,Clear,0,2012-12-29 03:15:00
10:35 PM,30.2,26.6,86,30.02,10.0,West,3.5,-,N/A,,Clear,260,2012-12-29 03:35:00
10:55 PM,30.2,26.6,86,30.03,10.0,SW,3.5,-,N/A,,Clear,230,2012-12-29 03:55:00
11:15 PM,30.2,26.6,86,30.02,10.0,WSW,3.5,-,N/A,,Clear,250,2012-12-29 04:15:00
11:35 PM,30.2,26.6,86,30.02,10.0,WSW,3.5,-,N/A,,Clear,250,2012-12-29 04:35:00
11:55 PM,30.2,26.6,86,30.02,10.0,WSW,3.5,-,N/A,,Clear,250,2012-12-29 04:55:00